GW5247 Weather Reports


time (UTC)temp
F
wind
direction
speed
knots
gust
knots
rain 1hr
in
rain 24hr
in
rain mn
in
humidity
%
barometer
mb
20260906122518 74 351 1.7 2.6 0.00 0.09 0.00 93 1013.3
20260906121518 74 9 1.7 2.6 0.00 0.09 0.00 94 1013.2
20260906120518 73 38 1.7 2.6 0.00 0.09 0.00 95 1013.2
20260906115518 73 18 0.9 2.6 0.00 0.09 0.00 96 1013.1
20260906114518 73 16 0.9 2.6 0.00 0.09 0.00 96 1013.0
20260906113519 73 11 0.9 2.6 0.00 0.09 0.00 96 1012.9
20260906112519 73 60 1.7 3.5 0.00 0.09 0.00 96 1012.8
20260906111519 73 19 0.9 2.6 0.00 0.09 0.00 97 1012.7
20260906110519 73 18 0.9 3.5 0.00 0.09 0.00 97 1012.5
20260906105519 73 358 1.7 3.5 0.00 0.09 0.00 98 1012.4
20260906104540 73 17 1.7 4.3 0.00 0.09 0.00 98 1012.2
20260906103541 73 358 2.6 8.7 0.00 0.09 0.00 98 1012.3
20260906102519 73 352 1.7 5.2 0.00 0.09 0.00 98 1012.3
20260906101520 73 8 1.7 3.5 0.00 0.09 0.00 98 1012.2
20260906100540 73 30 0.9 2.6 0.00 0.09 0.00 98 1011.9
20260906095540 73 17 0.9 2.6 0.00 0.09 0.00 98 1011.9
20260906094540 73 6 1.7 3.5 0.00 0.09 0.00 98 1011.7
20260906093540 73 1 1.7 3.5 0.00 0.09 0.00 98 1011.6
20260906092520 73 6 0.9 1.7 0.00 0.09 0.00 98 1011.6
20260906091520 73 29 0.9 0.9 0.00 0.09 0.00 98 1011.5
20260906090521 73 11 0.9 1.7 0.00 0.09 0.00 98 1011.6
20260906085521 73 12 0.9 3.5 0.00 0.09 0.00 98 1011.4
20260906084541 72 7 1.7 3.5 0.00 0.09 0.00 98 1011.4
20260906083541 72 12 1.7 2.6 0.00 0.09 0.00 99 1011.3
20260906082521 72 18 0.9 2.6 0.00 0.09 0.00 99 1011.2
20260906081521 72 358 1.7 3.5 0.00 0.09 0.00 99 1011.1
20260906080522 72 9 0.9 1.7 0.00 0.09 0.00 99 1010.9
20260906075522 72 258 0.9 0.9 0.00 0.09 0.00 99 1010.8
20260906074522 72 188 0.0 0.9 0.00 0.09 0.00 99 1010.8
20260906073542 72 44 0.9 1.7 0.00 0.09 0.00 99 1010.7
20260906072542 72 23 1.7 2.6 0.00 0.09 0.00 99 1010.8
20260906071543 72 14 1.7 2.6 0.00 0.09 0.00 99 1010.8
20260906070543 72 360 0.0 1.7 0.00 0.09 0.00 99 1010.8
20260906065543 72 16 0.0 0.9 0.00 0.09 0.00 98 1010.8
20260906064523 72 0 0.9 0.9 0.00 0.09 0.00 99 1010.9
20260906063523 72 354 0.9 1.7 0.00 0.09 0.00 99 1011.0
20260906062524 72 349 0.9 0.9 0.00 0.09 0.00 98 1011.0
20260906061523 72 279 0.9 0.9 0.00 0.09 0.00 98 1011.1
20260906060524 72 39 0.9 0.9 0.00 0.09 0.00 98 1011.3
20260906055544 72 235 0.0 0.9 0.00 0.09 0.00 98 1011.4
20260906054544 72 315 0.0 0.0 0.00 0.09 0.00 98 1011.5
20260906053544 72 11 0.9 1.7 0.00 0.09 0.00 98 1011.5
20260906052544 72 210 0.0 0.9 0.00 0.09 0.00 98 1011.6
20260906051545 72 13 0.0 1.7 0.00 0.09 0.00 98 1011.7
20260906050524 72 93 0.0 0.9 0.00 0.09 0.00 98 1011.9
20260906045524 72 29 0.0 0.9 0.00 0.09 0.00 98 1011.9
20260906044525 72 32 0.0 0.9 0.00 0.09 0.00 98 1011.9
20260906043545 72 0.0 0.0 0.00 0.09 0.00 98 1011.9
20260906042525 73 51 0.0 0.9 0.00 0.09 0.00 98 1012.0
20260906041546 73 2 0.9 1.7 0.00 0.09 0.00 98 1012.0
20260906040546 73 199 0.0 0.9 0.00 0.09 0.00 98 1012.0
20260906035546 73 216 0.0 0.9 0.00 0.09 0.09 98 1012.1
20260906034526 73 0.0 0.0 0.00 0.09 0.09 97 1012.1
20260906033526 73 80 0.0 0.0 0.00 0.09 0.09 97 1012.2
20260906032516 73 202 0.0 0.9 0.00 0.09 0.09 97 1012.2
20260906031536 73 21 0.0 1.7 0.00 0.09 0.09 97 1012.2
20260906030536 73 0.0 0.0 0.00 0.09 0.09 97 1012.2
20260906025536 73 0.0 0.0 0.00 0.09 0.09 97 1012.1
20260906024537 73 194 0.0 0.9 0.00 0.09 0.09 97 1012.1
20260906023517 73 206 0.0 0.0 0.00 0.09 0.09 97 1012.2
20260906022517 74 320 0.0 1.7 0.00 0.09 0.09 97 1012.1
20260906021517 74 17 0.0 2.6 0.00 0.09 0.09 97 1012.0
20260906020517 74 10 0.0 3.5 0.00 0.09 0.09 97 1011.9
20260906015517 74 0 0.9 4.3 0.00 0.09 0.09 97 1011.9
20260906014517 74 348 0.0 1.7 0.00 0.09 0.09 97 1011.8
20260906013517 74 93 0.0 0.9 0.00 0.09 0.09 97 1011.9
20260906012518 74 0.0 0.0 0.00 0.09 0.09 96 1011.6
20260906011518 74 0.0 0.0 0.00 0.09 0.09 96 1011.6
20260906010538 74 187 0.0 0.0 0.00 0.09 0.09 95 1011.6
20260906005538 75 183 0.0 1.7 0.00 0.09 0.09 95 1011.6
20260906004515 75 1 0.0 0.9 0.00 0.09 0.09 94 1011.5
20260906003515 75 352 0.0 1.7 0.00 0.09 0.09 94 1011.6
20260906002515 76 0.0 0.0 0.00 0.09 0.09 93 1011.4
20260906001516 76 216 0.0 1.7 0.00 0.09 0.09 92 1011.2
20260906000516 76 243 0.0 1.7 0.00 0.09 0.09 91 1011.0
20260905235516 76 347 1.7 3.5 0.00 0.09 0.09 91 1010.8
20260905234517 76 350 2.6 4.3 0.00 0.09 0.09 91 1010.8
20260905233517 77 345 1.7 2.6 0.00 0.09 0.09 91 1010.7
20260905232517 77 349 0.9 3.5 0.00 0.09 0.09 91 1010.4
20260905231537 77 341 0.9 3.5 0.00 0.09 0.09 91 1010.6
20260905230537 77 346 0.9 2.6 0.00 0.09 0.09 90 1010.0
20260905225538 77 343 1.7 2.6 0.00 0.09 0.09 91 1009.8
20260905224537 77 132 0.0 0.9 0.00 0.09 0.09 91 1009.7
20260905223538 76 347 0.9 2.6 0.00 0.09 0.09 90 1009.8
20260905222518 76 351 1.7 4.3 0.01 0.09 0.09 91 1010.0
20260905221515 75 227 0.9 2.6 0.03 0.09 0.09 92 1010.3
20260905220538 75 307 0.0 0.9 0.06 0.09 0.09 92 1010.2
20260905215515 75 282 0.0 1.7 0.09 0.09 0.09 93 1010.4
20260905214515 75 289 0.0 0.9 0.09 0.09 0.09 93 1010.4
20260905213515 76 237 0.0 0.9 0.09 0.09 0.09 92 1010.4
20260905212515 77 0.0 0.0 0.08 0.08 0.08 87 1010.1
20260905211515 79 265 0.0 1.7 0.05 0.05 0.05 84 1010.2
20260905210516 81 353 0.0 1.7 0.03 0.03 0.03 75 1010.4
20260905205516 81 348 2.6 5.2 0.00 0.00 0.00 72 1010.4
20260905204517 82 10 1.7 5.2 0.00 0.00 0.00 71 1010.1
20260905203517 83 342 1.7 4.3 0.00 0.00 0.00 69 1010.1
20260905202517 84 1 2.6 7.0 0.00 0.00 0.00 67 1010.4
20260905201517 85 6 4.3 9.6 0.00 0.00 0.00 65 1010.6
20260905200517 88 356 5.2 12.2 0.00 0.00 0.00 63 1010.1
20260905195517 93 7 5.2 10.4 0.00 0.00 0.00 58 1009.9
20260905194518 96 9 3.5 6.1 0.00 0.00 0.00 45 1009.4
20260905193518 97 10 2.6 5.2 0.00 0.00 0.00 43 1009.5
20260905192538 98 9 2.6 8.7 0.00 0.00 0.00 42 1009.2
20260905191518 98 12 1.7 6.1 0.00 0.00 0.00 43 1009.2
20260905190538 98 10 2.6 7.8 0.00 0.00 0.00 40 1009.4
20260905185515 98 321 2.6 5.2 0.00 0.00 0.00 42 1009.3
20260905184515 99 356 2.6 6.1 0.00 0.00 0.00 43 1009.3
20260905183515 98 12 2.6 6.1 0.00 0.00 0.00 43 1009.5
20260905182516 98 1 2.6 5.2 0.00 0.00 0.00 45 1009.8
20260905181516 97 10 2.6 5.2 0.00 0.00 0.00 46 1010.0
20260905180516 98 354 1.7 4.3 0.00 0.00 0.00 46 1010.3
20260905175516 97 36 0.9 4.3 0.00 0.00 0.00 47 1010.5
20260905174516 97 259 1.7 5.2 0.00 0.00 0.00 49 1010.7
20260905173537 97 342 0.9 4.3 0.00 0.00 0.00 51 1011.0
20260905172516 96 341 2.6 7.8 0.00 0.00 0.00 51 1011.1
20260905171517 96 13 2.6 5.2 0.00 0.00 0.00 51 1011.3
20260905170517 96 280 2.6 7.8 0.00 0.00 0.00 52 1011.5
20260905165517 95 227 1.7 5.2 0.00 0.00 0.00 52 1011.5
20260905164517 95 7 2.6 6.1 0.00 0.00 0.00 53 1011.6
20260905163517 95 357 1.7 5.2 0.00 0.00 0.00 54 1011.7
20260905162517 94 353 1.7 4.3 0.00 0.00 0.00 54 1011.9
20260905161518 94 237 0.9 4.3 0.00 0.00 0.00 56 1012.0
20260905160518 93 300 1.7 6.1 0.00 0.00 0.00 57 1012.2
20260905155538 93 295 2.6 8.7 0.00 0.00 0.00 57 1012.3
20260905154515 93 5 0.9 3.5 0.00 0.00 0.00 59 1012.5
20260905153515 92 227 1.7 6.1 0.00 0.00 0.00 59 1012.6
20260905152516 91 220 0.9 3.5 0.00 0.00 0.00 61 1012.5
20260905151516 91 306 2.6 6.1 0.00 0.00 0.00 61 1012.6
20260905150516 90 350 2.6 6.1 0.00 0.00 0.00 63 1012.6
20260905145516 90 310 1.7 7.0 0.00 0.00 0.00 63 1012.6
20260905144516 90 339 1.7 6.1 0.00 0.00 0.00 63 1012.6
20260905143516 88 249 1.7 6.1 0.00 0.00 0.00 65 1012.6
20260905142517 88 247 1.7 3.5 0.00 0.00 0.00 67 1012.7
20260905141516 87 274 1.7 4.3 0.00 0.00 0.00 69 1012.6
20260905140516 86 245 2.6 5.2 0.00 0.00 0.00 72 1012.6
20260905135517 86 241 1.7 4.3 0.00 0.00 0.00 73 1012.4
20260905134537 85 251 1.7 4.3 0.00 0.00 0.00 74 1012.5
20260905133538 84 245 1.7 4.3 0.00 0.00 0.00 76 1012.5
20260905132537 84 251 1.7 7.0 0.00 0.00 0.00 77 1012.5
20260905131538 83 248 1.7 5.2 0.00 0.00 0.00 79 1012.6
20260905130538 82 246 1.7 5.2 0.00 0.00 0.00 81 1012.6
20260905125518 81 253 1.7 4.3 0.00 0.00 0.00 81 1012.7
20260905124517 80 253 1.7 4.3 0.00 0.00 0.00 84 1012.8
20260905123516 78 239 0.9 3.5 0.00 0.00 0.00 87 1012.8